Time,TemperatureF,DewpointF,PressureIn,WindDirection,WindDirectionDegrees,WindSpeedMPH,WindSpeedGustMPH,Humidity,HourlyPrecipIn,Conditions,Clouds,dailyrainin,SoftwareType,DateUTC
2013-04-27 00:02:00,51.8,42.0,30.17,South,173,0.0,0.0,69,0.00,,SKC,0.00,VWS V14.01,2013-04-27 05:02:00,
2013-04-27 00:07:00,51.6,42.2,30.17,SSE,163,0.0,0.0,70,0.00,,SKC,0.00,VWS V14.01,2013-04-27 05:07:00,
2013-04-27 00:12:00,51.4,42.0,30.17,SSE,155,0.0,0.0,70,0.00,,SKC,0.00,VWS V14.01,2013-04-27 05:12:00,
2013-04-27 00:18:00,51.3,42.2,30.17,South,172,0.0,0.0,71,0.00,,SKC,0.00,VWS V14.01,2013-04-27 05:18:00,
2013-04-27 00:23:00,51.1,42.4,30.17,South,173,0.0,4.8,72,0.00,,SKC,0.00,VWS V14.01,2013-04-27 05:23:00,
2013-04-27 00:28:00,50.9,42.2,30.17,South,186,0.0,0.0,72,0.00,,SKC,0.00,VWS V14.01,2013-04-27 05:28:00,
2013-04-27 00:33:00,50.7,42.0,30.17,South,182,0.0,0.0,72,0.00,,SKC,0.00,VWS V14.01,2013-04-27 05:33:00,
2013-04-27 00:38:00,50.5,42.2,30.17,SSW,192,0.0,0.0,73,0.00,,SKC,0.00,VWS V14.01,2013-04-27 05:38:00,
2013-04-27 00:43:00,50.5,42.2,30.17,South,170,0.0,0.0,73,0.00,,SKC,0.00,VWS V14.01,2013-04-27 05:43:00,
2013-04-27 00:48:00,50.4,42.0,30.17,South,182,5.6,5.6,73,0.00,,SKC,0.00,VWS V14.01,2013-04-27 05:48:00,
2013-04-27 00:53:00,50.2,42.2,30.17,SE,145,0.0,11.3,74,0.00,,SKC,0.00,VWS V14.01,2013-04-27 05:53:00,
2013-04-27 00:58:00,50.2,42.2,30.17,South,181,0.0,0.0,74,0.00,,SKC,0.00,VWS V14.01,2013-04-27 05:58:00,
2013-04-27 01:03:00,50.0,42.0,30.17,South,174,0.0,0.0,74,0.00,,SKC,0.00,VWS V14.01,2013-04-27 06:03:00,
2013-04-27 01:08:00,49.8,42.2,30.17,SSW,209,0.0,0.0,75,0.00,,SKC,0.00,VWS V14.01,2013-04-27 06:08:00,
2013-04-27 01:13:00,49.5,41.9,30.17,SSE,160,0.0,0.0,75,0.00,,SKC,0.00,VWS V14.01,2013-04-27 06:13:00,
2013-04-27 01:18:00,49.3,41.7,30.17,SE,136,0.0,0.0,75,0.00,,SKC,0.00,VWS V14.01,2013-04-27 06:18:00,
2013-04-27 01:23:00,48.9,41.4,30.17,SSW,194,0.0,0.0,75,0.00,,SKC,0.00,VWS V14.01,2013-04-27 06:23:00,
2013-04-27 01:28:00,48.7,41.5,30.17,SSE,163,0.0,0.0,76,0.00,,SKC,0.00,VWS V14.01,2013-04-27 06:28:00,
2013-04-27 01:34:00,48.4,41.2,30.17,SSW,202,0.0,0.0,76,0.00,,SKC,0.00,VWS V14.01,2013-04-27 06:34:00,
2013-04-27 01:39:00,48.4,41.5,30.17,SSE,149,0.0,0.0,77,0.00,,SKC,0.00,VWS V14.01,2013-04-27 06:39:00,
2013-04-27 01:44:00,48.2,41.7,30.17,SE,139,0.0,0.0,78,0.00,,SKC,0.00,VWS V14.01,2013-04-27 06:44:00,
2013-04-27 01:49:00,48.0,41.8,30.17,SSE,163,0.0,0.0,79,0.00,,SKC,0.00,VWS V14.01,2013-04-27 06:49:00,
2013-04-27 01:54:00,48.0,42.2,30.17,SSW,193,0.0,0.0,80,0.00,,SKC,0.00,VWS V14.01,2013-04-27 06:54:00,
2013-04-27 01:59:00,47.8,42.0,30.17,South,172,0.0,0.0,80,0.00,,SKC,0.00,VWS V14.01,2013-04-27 06:59:00,
2013-04-27 02:04:00,47.7,42.1,30.17,South,169,0.0,0.0,81,0.00,,SKC,0.00,VWS V14.01,2013-04-27 07:04:00,
2013-04-27 02:09:00,47.7,42.4,30.17,South,170,0.0,0.0,82,0.00,,SKC,0.00,VWS V14.01,2013-04-27 07:09:00,
2013-04-27 02:14:00,47.7,42.4,30.17,SSE,154,0.0,0.0,82,0.00,,SKC,0.00,VWS V14.01,2013-04-27 07:14:00,
2013-04-27 02:19:00,47.7,42.8,30.17,SSW,192,0.0,0.0,83,0.00,,SKC,0.00,VWS V14.01,2013-04-27 07:19:00,
2013-04-27 02:24:00,47.5,42.6,30.17,SSE,164,6.4,6.4,83,0.00,,SKC,0.00,VWS V14.01,2013-04-27 07:24:00,
2013-04-27 02:29:00,47.3,42.4,30.17,South,179,0.0,11.3,83,0.00,,SKC,0.00,VWS V14.01,2013-04-27 07:29:00,
2013-04-27 02:34:00,47.3,42.4,30.17,SSW,192,0.0,0.0,83,0.00,,SKC,0.00,VWS V14.01,2013-04-27 07:34:00,
2013-04-27 02:39:00,47.3,42.7,30.17,SSW,200,0.0,6.4,84,0.00,,SKC,0.00,VWS V14.01,2013-04-27 07:39:00,
2013-04-27 02:44:00,47.1,42.5,30.17,South,184,0.0,0.0,84,0.00,,SKC,0.00,VWS V14.01,2013-04-27 07:44:00,
2013-04-27 02:49:00,47.1,42.5,30.14,South,174,0.0,0.0,84,0.00,,SKC,0.00,VWS V14.01,2013-04-27 07:49:00,
2013-04-27 02:54:00,46.9,42.4,30.14,SSW,197,0.0,0.0,84,0.00,,SKC,0.00,VWS V14.01,2013-04-27 07:54:00,
2013-04-27 02:59:00,47.1,42.8,30.14,South,179,0.0,0.0,85,0.00,,SKC,0.00,VWS V14.01,2013-04-27 07:59:00,
2013-04-27 03:04:00,46.9,42.7,30.14,South,169,5.6,9.7,85,0.00,,SKC,0.00,VWS V14.01,2013-04-27 08:04:00,
2013-04-27 03:09:00,46.8,42.5,30.14,South,183,0.0,0.0,85,0.00,,SKC,0.00,VWS V14.01,2013-04-27 08:09:00,
2013-04-27 03:14:00,46.6,42.3,30.14,South,182,0.0,4.8,85,0.00,,SKC,0.00,VWS V14.01,2013-04-27 08:14:00,
2013-04-27 03:20:00,46.6,42.3,30.14,SSW,200,6.4,6.4,85,0.00,,SKC,0.00,VWS V14.01,2013-04-27 08:20:00,
2013-04-27 03:25:00,46.6,42.6,30.14,South,181,0.0,0.0,86,0.00,,SKC,0.00,VWS V14.01,2013-04-27 08:25:00,
2013-04-27 03:30:00,46.4,42.5,30.14,SSW,197,0.0,0.0,86,0.00,,SKC,0.00,VWS V14.01,2013-04-27 08:30:00,
2013-04-27 03:35:00,46.2,42.3,30.14,SSE,165,0.0,0.0,86,0.00,,SKC,0.00,VWS V14.01,2013-04-27 08:35:00,
2013-04-27 03:40:00,46.2,42.3,30.14,South,175,0.0,0.0,86,0.00,,SKC,0.00,VWS V14.01,2013-04-27 08:40:00,
2013-04-27 03:45:00,46.2,42.6,30.14,South,175,0.0,0.0,87,0.00,,SKC,0.00,VWS V14.01,2013-04-27 08:45:00,
2013-04-27 03:50:00,46.4,42.8,30.14,SSE,155,5.6,5.6,87,0.00,,SKC,0.00,VWS V14.01,2013-04-27 08:50:00,
2013-04-27 03:55:00,46.2,42.6,30.14,South,184,0.0,4.0,87,0.00,,SKC,0.00,VWS V14.01,2013-04-27 08:55:00,
2013-04-27 04:00:00,45.9,42.2,30.14,SSE,155,0.0,0.0,87,0.00,,SKC,0.00,VWS V14.01,2013-04-27 09:00:00,
2013-04-27 04:05:00,45.9,42.2,30.14,South,172,0.0,6.4,87,0.00,,SKC,0.00,VWS V14.01,2013-04-27 09:05:00,
2013-04-27 04:10:00,45.7,42.3,30.14,SSW,192,0.0,0.0,88,0.00,,SKC,0.00,VWS V14.01,2013-04-27 09:10:00,
2013-04-27 04:15:00,45.5,42.2,30.14,SSE,164,0.0,0.0,88,0.00,,SKC,0.00,VWS V14.01,2013-04-27 09:15:00,
2013-04-27 04:20:00,45.3,42.0,30.14,SSW,194,0.0,0.0,88,0.00,,SKC,0.00,VWS V14.01,2013-04-27 09:20:00,
2013-04-27 04:25:00,45.3,42.0,30.14,South,190,0.0,0.0,88,0.00,,SKC,0.00,VWS V14.01,2013-04-27 09:25:00,
2013-04-27 04:30:00,45.1,41.8,30.14,South,178,0.0,0.0,88,0.00,,SKC,0.00,VWS V14.01,2013-04-27 09:30:00,
2013-04-27 04:35:00,45.3,42.3,30.14,SSE,160,0.0,0.0,89,0.00,,SKC,0.00,VWS V14.01,2013-04-27 09:35:00,
2013-04-27 04:40:00,45.1,42.1,30.14,SSE,167,0.0,0.0,89,0.00,,SKC,0.00,VWS V14.01,2013-04-27 09:40:00,
2013-04-27 04:45:00,45.1,42.1,30.14,South,181,0.0,0.0,89,0.00,,SKC,0.00,VWS V14.01,2013-04-27 09:45:00,
2013-04-27 04:50:00,44.8,41.7,30.14,SSE,168,0.0,0.0,89,0.00,,SKC,0.00,VWS V14.01,2013-04-27 09:50:00,
2013-04-27 04:56:00,44.6,41.6,30.14,SSE,164,0.0,0.0,89,0.00,,SKC,0.00,VWS V14.01,2013-04-27 09:56:00,
2013-04-27 05:01:00,44.4,41.7,30.14,SW,218,0.0,0.0,90,0.00,,SKC,0.00,VWS V14.01,2013-04-27 10:01:00,
2013-04-27 05:06:00,44.2,41.5,30.14,South,180,0.0,0.0,90,0.00,,SKC,0.00,VWS V14.01,2013-04-27 10:06:00,
2013-04-27 05:11:00,44.2,41.5,30.14,South,180,0.0,0.0,90,0.00,,SKC,0.00,VWS V14.01,2013-04-27 10:11:00,
2013-04-27 05:16:00,44.1,41.3,30.14,SSE,162,0.0,0.0,90,0.00,,SKC,0.00,VWS V14.01,2013-04-27 10:16:00,
2013-04-27 05:21:00,44.1,41.3,30.14,SSE,167,0.0,0.0,90,0.00,,SKC,0.00,VWS V14.01,2013-04-27 10:21:00,
2013-04-27 05:26:00,43.7,41.0,30.14,SSE,160,0.0,0.0,90,0.00,,SKC,0.00,VWS V14.01,2013-04-27 10:26:00,
2013-04-27 05:31:00,43.9,41.4,30.14,South,187,0.0,0.0,91,0.00,,SKC,0.00,VWS V14.01,2013-04-27 10:31:00,
2013-04-27 05:36:00,43.7,41.2,30.14,SSE,148,0.0,0.0,91,0.00,,SKC,0.00,VWS V14.01,2013-04-27 10:36:00,
2013-04-27 05:41:00,43.7,41.2,30.14,South,171,0.0,0.0,91,0.00,,SKC,0.00,VWS V14.01,2013-04-27 10:41:00,
2013-04-27 05:46:00,43.7,41.2,30.14,SSE,160,0.0,0.0,91,0.00,,SKC,0.00,VWS V14.01,2013-04-27 10:46:00,
2013-04-27 05:51:00,43.5,41.1,30.14,SSE,155,0.0,0.0,91,0.00,,SKC,0.00,VWS V14.01,2013-04-27 10:51:00,
2013-04-27 05:56:00,43.5,41.1,30.14,SSW,211,6.4,6.4,91,0.00,,SKC,0.00,VWS V14.01,2013-04-27 10:56:00,
2013-04-27 06:01:00,43.5,41.3,30.14,SSE,157,0.0,0.0,92,0.00,,SKC,0.00,VWS V14.01,2013-04-27 11:01:00,
2013-04-27 06:06:00,43.5,41.3,30.14,SSE,167,0.0,0.0,92,0.00,,SKC,0.00,VWS V14.01,2013-04-27 11:06:00,
2013-04-27 06:11:00,43.3,41.2,30.14,SSE,160,0.0,6.4,92,0.00,,SKC,0.00,VWS V14.01,2013-04-27 11:11:00,
2013-04-27 06:17:00,43.3,41.2,30.14,SSE,152,0.0,0.0,92,0.00,,SKC,0.00,VWS V14.01,2013-04-27 11:17:00,
2013-04-27 06:22:00,43.2,41.0,30.14,SSE,165,0.0,0.0,92,0.00,,SKC,0.00,VWS V14.01,2013-04-27 11:22:00,
2013-04-27 06:27:00,43.3,41.2,30.14,South,180,0.0,0.0,92,0.00,,SKC,0.00,VWS V14.01,2013-04-27 11:27:00,
2013-04-27 06:32:00,43.5,41.6,30.14,South,176,0.0,0.0,93,0.00,,SKC,0.00,VWS V14.01,2013-04-27 11:32:00,
2013-04-27 06:37:00,43.5,41.6,30.14,SSW,206,6.4,6.4,93,0.00,,SKC,0.00,VWS V14.01,2013-04-27 11:37:00,
2013-04-27 06:42:00,44.1,42.2,30.14,South,176,0.0,0.0,93,0.00,,SKC,0.00,VWS V14.01,2013-04-27 11:42:00,
2013-04-27 06:47:00,44.8,42.9,30.14,SSE,168,0.0,4.8,93,0.00,,SKC,0.00,VWS V14.01,2013-04-27 11:47:00,
2013-04-27 06:52:00,45.5,43.6,30.14,SSE,154,0.0,0.0,93,0.00,,SKC,0.00,VWS V14.01,2013-04-27 11:52:00,
2013-04-27 06:57:00,45.5,43.6,30.14,South,170,0.0,0.0,93,0.00,,SKC,0.00,VWS V14.01,2013-04-27 11:57:00,
2013-04-27 07:02:00,45.5,43.6,30.14,SSW,199,0.0,0.0,93,0.00,,SKC,0.00,VWS V14.01,2013-04-27 12:02:00,
2013-04-27 07:07:00,45.3,43.4,30.14,South,185,0.0,0.0,93,0.00,,SKC,0.00,VWS V14.01,2013-04-27 12:07:00,
2013-04-27 07:12:00,45.5,43.3,30.14,SSE,167,0.0,0.0,92,0.00,,SKC,0.00,VWS V14.01,2013-04-27 12:12:00,
2013-04-27 07:17:00,45.7,43.5,30.14,SE,143,0.0,0.0,92,0.00,,SKC,0.00,VWS V14.01,2013-04-27 12:17:00,
2013-04-27 07:22:00,46.4,43.9,30.14,South,174,0.0,0.0,91,0.00,,SKC,0.00,VWS V14.01,2013-04-27 12:22:00,
2013-04-27 07:27:00,48.6,46.1,30.14,SSE,163,0.0,5.6,91,0.00,,SKC,0.00,VWS V14.01,2013-04-27 12:27:00,
2013-04-27 07:32:00,49.8,45.2,30.14,SSW,194,6.4,7.2,84,0.00,,SKC,0.00,VWS V14.01,2013-04-27 12:32:00,
2013-04-27 07:37:00,50.4,43.8,30.14,South,181,0.0,0.0,78,0.00,,SKC,0.00,VWS V14.01,2013-04-27 12:37:00,
2013-04-27 07:43:00,52.0,43.6,30.14,South,186,0.0,0.0,73,0.00,,SKC,0.00,VWS V14.01,2013-04-27 12:43:00,
2013-04-27 07:48:00,54.1,43.0,30.14,South,172,0.0,4.8,66,0.00,,SKC,0.00,VWS V14.01,2013-04-27 12:48:00,
2013-04-27 07:53:00,53.8,42.3,30.17,SE,136,7.2,7.2,65,0.00,,SKC,0.00,VWS V14.01,2013-04-27 12:53:00,
2013-04-27 07:58:00,51.8,40.0,30.17,South,185,0.0,0.0,64,0.00,,SKC,0.00,VWS V14.01,2013-04-27 12:58:00,
2013-04-27 08:03:00,51.1,40.5,30.17,South,178,9.7,9.7,67,0.00,,SKC,0.00,VWS V14.01,2013-04-27 13:03:00,
2013-04-27 08:08:00,51.1,40.9,30.17,SSE,168,6.4,7.2,68,0.00,,SKC,0.00,VWS V14.01,2013-04-27 13:08:00,
2013-04-27 08:13:00,51.4,41.2,30.17,SE,133,11.3,11.3,68,0.00,,SKC,0.00,VWS V14.01,2013-04-27 13:13:00,
2013-04-27 08:18:00,51.8,41.6,30.17,SSW,207,0.0,0.0,68,0.00,,SKC,0.00,VWS V14.01,2013-04-27 13:18:00,
2013-04-27 08:23:00,52.2,41.2,30.17,WSW,240,0.0,6.4,66,0.00,,SKC,0.00,VWS V14.01,2013-04-27 13:23:00,
2013-04-27 08:28:00,52.7,41.3,30.17,South,173,9.7,9.7,65,0.00,,SKC,0.00,VWS V14.01,2013-04-27 13:28:00,
2013-04-27 08:33:00,53.2,41.8,30.17,South,188,0.0,4.8,65,0.00,,SKC,0.00,VWS V14.01,2013-04-27 13:33:00,
2013-04-27 08:38:00,54.0,42.1,30.17,SSW,205,0.0,5.6,64,0.00,,SKC,0.00,VWS V14.01,2013-04-27 13:38:00,
2013-04-27 08:43:00,54.5,41.8,30.17,SSE,168,7.2,7.2,62,0.00,,SKC,0.00,VWS V14.01,2013-04-27 13:43:00,
2013-04-27 08:48:00,55.0,41.8,30.17,South,187,0.0,0.0,61,0.00,,SKC,0.00,VWS V14.01,2013-04-27 13:48:00,
2013-04-27 08:53:00,55.6,41.0,30.14,SSW,210,0.0,6.4,58,0.00,,SKC,0.00,VWS V14.01,2013-04-27 13:53:00,
2013-04-27 08:59:00,55.9,40.9,30.14,SSW,197,0.0,0.0,57,0.00,,SKC,0.00,VWS V14.01,2013-04-27 13:59:00,
2013-04-27 09:04:00,56.3,41.3,30.14,South,169,4.0,8.9,57,0.00,,SKC,0.00,VWS V14.01,2013-04-27 14:04:00,
2013-04-27 09:09:00,56.7,41.2,30.14,SW,214,0.0,14.9,56,0.00,,SKC,0.00,VWS V14.01,2013-04-27 14:09:00,
2013-04-27 09:14:00,56.7,40.7,30.14,South,179,9.7,14.9,55,0.00,,SKC,0.00,VWS V14.01,2013-04-27 14:14:00,
2013-04-27 09:19:00,57.0,41.0,30.14,South,175,0.0,7.2,55,0.00,,SKC,0.00,VWS V14.01,2013-04-27 14:19:00,
2013-04-27 09:24:00,57.6,42.0,30.14,South,169,10.5,10.5,56,0.00,,SKC,0.00,VWS V14.01,2013-04-27 14:24:00,
2013-04-27 09:29:00,58.3,41.7,30.14,SSE,150,7.2,7.2,54,0.00,,SKC,0.00,VWS V14.01,2013-04-27 14:29:00,
2013-04-27 09:34:00,58.6,41.1,30.14,SSE,168,0.0,11.3,52,0.00,,SKC,0.00,VWS V14.01,2013-04-27 14:34:00,
2013-04-27 09:39:00,59.2,41.6,30.14,WSW,239,0.0,7.2,52,0.00,,SKC,0.00,VWS V14.01,2013-04-27 14:39:00,
2013-04-27 09:44:00,59.7,41.6,30.14,SSE,155,7.2,10.5,51,0.00,,SKC,0.00,VWS V14.01,2013-04-27 14:44:00,
2013-04-27 09:49:00,59.9,40.7,30.14,WSW,252,9.7,14.5,49,0.00,,SKC,0.00,VWS V14.01,2013-04-27 14:49:00,
2013-04-27 09:54:00,60.3,41.6,30.14,SSE,167,7.2,8.9,50,0.00,,SKC,0.00,VWS V14.01,2013-04-27 14:54:00,
2013-04-27 09:59:00,61.0,41.7,30.14,South,180,6.4,10.5,49,0.00,,SKC,0.00,VWS V14.01,2013-04-27 14:59:00,
2013-04-27 10:04:00,61.5,41.7,30.14,SSW,195,0.0,0.0,48,0.00,,SKC,0.00,VWS V14.01,2013-04-27 15:04:00,
2013-04-27 10:09:00,61.7,41.3,30.14,South,187,11.3,11.3,47,0.00,,SKC,0.00,VWS V14.01,2013-04-27 15:09:00,
2013-04-27 10:15:00,61.7,41.3,30.14,SE,125,11.3,11.3,47,0.00,,SKC,0.00,VWS V14.01,2013-04-27 15:15:00,
2013-04-27 10:20:00,61.9,41.5,30.14,SE,146,9.7,10.5,47,0.00,,SKC,0.00,VWS V14.01,2013-04-27 15:20:00,
2013-04-27 10:25:00,62.2,41.8,30.14,SSW,194,13.7,13.7,47,0.00,,SKC,0.00,VWS V14.01,2013-04-27 15:25:00,
2013-04-27 10:30:00,62.4,41.9,30.14,SW,218,13.7,13.7,47,0.00,,SKC,0.00,VWS V14.01,2013-04-27 15:30:00,
2013-04-27 10:35:00,63.1,42.0,30.14,SSE,153,10.5,10.5,46,0.00,,SKC,0.00,VWS V14.01,2013-04-27 15:35:00,
2013-04-27 10:40:00,63.3,42.2,30.14,SSW,205,7.2,7.2,46,0.00,,SKC,0.00,VWS V14.01,2013-04-27 15:40:00,
2013-04-27 10:45:00,63.5,41.8,30.14,SSE,154,5.6,5.6,45,0.00,,SKC,0.00,VWS V14.01,2013-04-27 15:45:00,
2013-04-27 10:50:00,63.9,42.1,30.14,SSW,202,10.5,14.9,45,0.00,,SKC,0.00,VWS V14.01,2013-04-27 15:50:00,
2013-04-27 10:55:00,64.6,42.8,30.14,South,179,9.7,14.5,45,0.00,,SKC,0.00,VWS V14.01,2013-04-27 15:55:00,
2013-04-27 11:00:00,64.8,42.4,30.14,South,189,8.1,11.3,44,0.00,,SKC,0.00,VWS V14.01,2013-04-27 16:00:00,
2013-04-27 11:05:00,64.8,41.8,30.14,SSE,157,14.5,14.5,43,0.00,,SKC,0.00,VWS V14.01,2013-04-27 16:05:00,
2013-04-27 11:10:00,65.1,42.7,30.14,SSE,167,7.2,7.2,44,0.00,,SKC,0.00,VWS V14.01,2013-04-27 16:10:00,
2013-04-27 11:15:00,65.5,42.4,30.14,South,170,14.9,14.9,43,0.00,,SKC,0.00,VWS V14.01,2013-04-27 16:15:00,
2013-04-27 11:20:00,65.3,42.2,30.14,SSW,193,14.5,14.5,43,0.00,,SKC,0.00,VWS V14.01,2013-04-27 16:20:00,
2013-04-27 11:25:00,65.7,42.6,30.14,WSW,245,9.7,9.7,43,0.00,,SKC,0.00,VWS V14.01,2013-04-27 16:25:00,
2013-04-27 11:31:00,65.8,42.1,30.14,SSW,193,18.1,18.1,42,0.00,,SKC,0.00,VWS V14.01,2013-04-27 16:31:00,
2013-04-27 11:36:00,65.8,42.1,30.14,SSE,150,8.1,9.7,42,0.00,,SKC,0.00,VWS V14.01,2013-04-27 16:36:00,
2013-04-27 11:41:00,66.2,41.8,30.14,SW,221,15.7,15.7,41,0.00,,SKC,0.00,VWS V14.01,2013-04-27 16:41:00,
2013-04-27 11:46:00,66.6,42.2,30.14,SW,235,11.3,12.9,41,0.00,,SKC,0.00,VWS V14.01,2013-04-27 16:46:00,
2013-04-27 11:51:00,66.6,42.2,30.14,SE,145,11.3,11.3,41,0.00,,SKC,0.00,VWS V14.01,2013-04-27 16:51:00,
2013-04-27 11:56:00,66.9,41.2,30.14,SW,230,13.7,14.5,39,0.00,,SKC,0.00,VWS V14.01,2013-04-27 16:56:00,
2013-04-27 12:01:00,67.1,41.3,30.14,SW,222,0.0,9.7,39,0.00,,SKC,0.00,VWS V14.01,2013-04-27 17:01:00,
2013-04-27 12:06:00,67.3,41.5,30.14,South,176,12.9,14.5,39,0.00,,SKC,0.00,VWS V14.01,2013-04-27 17:06:00,
2013-04-27 12:11:00,67.1,40.7,30.14,SW,214,6.4,14.5,38,0.00,,SKC,0.00,VWS V14.01,2013-04-27 17:11:00,
2013-04-27 12:16:00,67.1,40.7,30.14,West,271,13.7,13.7,38,0.00,,SKC,0.00,VWS V14.01,2013-04-27 17:16:00,
2013-04-27 12:21:00,67.6,41.8,30.14,SSW,199,8.9,8.9,39,0.00,,SKC,0.00,VWS V14.01,2013-04-27 17:21:00,
2013-04-27 12:26:00,67.5,41.0,30.14,South,179,6.4,14.9,38,0.00,,SKC,0.00,VWS V14.01,2013-04-27 17:26:00,
2013-04-27 12:31:00,67.6,41.2,30.14,SSW,203,13.7,13.7,38,0.00,,SKC,0.00,VWS V14.01,2013-04-27 17:31:00,
2013-04-27 12:36:00,67.6,41.2,30.11,SSE,161,11.3,11.3,38,0.00,,SKC,0.00,VWS V14.01,2013-04-27 17:36:00,
2013-04-27 12:42:00,68.0,41.5,30.11,SSW,201,11.3,11.3,38,0.00,,SKC,0.00,VWS V14.01,2013-04-27 17:42:00,
2013-04-27 12:47:00,68.4,41.8,30.11,SSE,167,14.5,14.5,38,0.00,,SKC,0.00,VWS V14.01,2013-04-27 17:47:00,
2013-04-27 12:52:00,68.9,40.9,30.11,SW,224,7.2,10.5,36,0.00,,SKC,0.00,VWS V14.01,2013-04-27 17:52:00,
2013-04-27 12:57:00,69.1,41.0,30.11,SSW,203,9.7,9.7,36,0.00,,SKC,0.00,VWS V14.01,2013-04-27 17:57:00,
2013-04-27 13:02:00,68.4,40.4,30.11,SSE,158,10.5,10.5,36,0.00,,SKC,0.00,VWS V14.01,2013-04-27 18:02:00,
2013-04-27 13:07:00,69.6,41.5,30.11,SE,126,6.4,8.1,36,0.00,,SKC,0.00,VWS V14.01,2013-04-27 18:07:00,
2013-04-27 13:12:00,70.0,41.1,30.11,SE,133,9.7,11.3,35,0.00,,SKC,0.00,VWS V14.01,2013-04-27 18:12:00,
2013-04-27 13:17:00,70.2,41.3,30.11,NW,312,9.7,9.7,35,0.00,,SKC,0.00,VWS V14.01,2013-04-27 18:17:00,
2013-04-27 13:22:00,70.9,41.1,30.11,South,183,11.3,11.3,34,0.00,,SKC,0.00,VWS V14.01,2013-04-27 18:22:00,
2013-04-27 13:27:00,70.5,40.8,30.11,SE,136,11.3,13.7,34,0.00,,SKC,0.00,VWS V14.01,2013-04-27 18:27:00,
2013-04-27 13:32:00,70.5,40.8,30.11,South,186,10.5,10.5,34,0.00,,SKC,0.00,VWS V14.01,2013-04-27 18:32:00,
2013-04-27 13:37:00,70.5,40.8,30.11,SW,225,5.6,5.6,34,0.00,,SKC,0.00,VWS V14.01,2013-04-27 18:37:00,
2013-04-27 13:42:00,70.5,40.8,30.11,SE,137,14.9,14.9,34,0.00,,SKC,0.00,VWS V14.01,2013-04-27 18:42:00,
2013-04-27 13:47:00,71.2,41.5,30.11,South,185,5.6,9.7,34,0.00,,SKC,0.00,VWS V14.01,2013-04-27 18:47:00,
2013-04-27 13:52:00,71.2,40.7,30.11,SSW,192,14.9,14.9,33,0.00,,SKC,0.00,VWS V14.01,2013-04-27 18:52:00,
2013-04-27 13:58:00,72.0,41.3,30.11,SSW,207,6.4,11.3,33,0.00,,SKC,0.00,VWS V14.01,2013-04-27 18:58:00,
2013-04-27 14:03:00,72.0,41.3,30.11,SSE,148,11.3,11.3,33,0.00,,SKC,0.00,VWS V14.01,2013-04-27 19:03:00,
2013-04-27 14:08:00,71.1,40.5,30.08,South,182,18.1,19.7,33,0.00,,SKC,0.00,VWS V14.01,2013-04-27 19:08:00,
2013-04-27 14:13:00,71.6,40.2,30.08,SSE,163,0.0,0.0,32,0.00,,SKC,0.00,VWS V14.01,2013-04-27 19:13:00,
2013-04-27 14:18:00,70.7,40.2,30.08,SE,142,4.8,10.5,33,0.00,,SKC,0.00,VWS V14.01,2013-04-27 19:18:00,
2013-04-27 14:23:00,70.9,40.4,30.08,SSE,167,5.6,9.7,33,0.00,,SKC,0.00,VWS V14.01,2013-04-27 19:23:00,
2013-04-27 14:28:00,71.2,40.7,30.08,SSW,204,7.2,8.9,33,0.00,,SKC,0.00,VWS V14.01,2013-04-27 19:28:00,
2013-04-27 14:33:00,72.1,41.5,30.08,South,171,4.8,5.6,33,0.00,,SKC,0.00,VWS V14.01,2013-04-27 19:33:00,
2013-04-27 14:38:00,71.2,39.9,30.08,SSE,166,0.0,0.0,32,0.00,,SKC,0.00,VWS V14.01,2013-04-27 19:38:00,
2013-04-27 14:43:00,69.3,39.0,30.08,SW,215,13.7,13.7,33,0.00,,SKC,0.00,VWS V14.01,2013-04-27 19:43:00,
2013-04-27 14:48:00,70.5,40.1,30.08,SSW,193,6.4,6.4,33,0.00,,SKC,0.00,VWS V14.01,2013-04-27 19:48:00,
2013-04-27 14:53:00,72.0,40.5,30.08,South,184,4.0,4.8,32,0.00,,SKC,0.00,VWS V14.01,2013-04-27 19:53:00,
2013-04-27 14:58:00,71.4,40.0,30.08,SE,124,4.8,4.8,32,0.00,,SKC,0.00,VWS V14.01,2013-04-27 19:58:00,
2013-04-27 15:03:00,70.9,39.6,30.08,SSE,160,6.4,10.5,32,0.00,,SKC,0.00,VWS V14.01,2013-04-27 20:03:00,
2013-04-27 15:08:00,70.7,39.4,30.08,SE,133,5.6,6.4,32,0.00,,SKC,0.00,VWS V14.01,2013-04-27 20:08:00,
2013-04-27 15:13:00,72.0,40.5,30.08,South,185,0.0,9.7,32,0.00,,SKC,0.00,VWS V14.01,2013-04-27 20:13:00,
2013-04-27 15:18:00,72.0,40.5,30.08,South,175,6.4,9.7,32,0.00,,SKC,0.00,VWS V14.01,2013-04-27 20:18:00,
2013-04-27 15:23:00,71.6,40.2,30.05,SW,226,0.0,15.7,32,0.00,,SKC,0.00,VWS V14.01,2013-04-27 20:23:00,
2013-04-27 15:28:00,70.2,39.0,30.05,SSE,157,6.4,8.9,32,0.00,,SKC,0.00,VWS V14.01,2013-04-27 20:28:00,
2013-04-27 15:33:00,71.2,40.7,30.05,South,173,9.7,14.5,33,0.00,,SKC,0.00,VWS V14.01,2013-04-27 20:33:00,
2013-04-27 15:38:00,70.5,39.3,30.05,SSE,162,8.9,9.7,32,0.00,,SKC,0.00,VWS V14.01,2013-04-27 20:38:00,
2013-04-27 15:43:00,72.0,40.5,30.05,South,177,7.2,11.3,32,0.00,,SKC,0.00,VWS V14.01,2013-04-27 20:43:00,
2013-04-27 15:48:00,71.2,39.9,30.05,SSE,158,6.4,11.3,32,0.00,,SKC,0.00,VWS V14.01,2013-04-27 20:48:00,
2013-04-27 15:53:00,71.8,40.4,30.05,SSE,163,13.7,13.7,32,0.00,,SKC,0.00,VWS V14.01,2013-04-27 20:53:00,
2013-04-27 15:59:00,72.5,40.2,30.05,SSE,152,10.5,14.5,31,0.00,,SKC,0.00,VWS V14.01,2013-04-27 20:59:00,
2013-04-27 16:04:00,70.5,39.3,30.05,SE,133,5.6,14.5,32,0.00,,SKC,0.00,VWS V14.01,2013-04-27 21:04:00,
2013-04-27 16:09:00,71.8,40.4,30.05,SSE,149,10.5,10.5,32,0.00,,SKC,0.00,VWS V14.01,2013-04-27 21:09:00,
2013-04-27 16:14:00,72.5,41.0,30.05,SSW,212,7.2,10.5,32,0.00,,SKC,0.00,VWS V14.01,2013-04-27 21:14:00,
2013-04-27 16:19:00,72.0,39.7,30.05,SE,125,9.7,11.3,31,0.00,,SKC,0.00,VWS V14.01,2013-04-27 21:19:00,
2013-04-27 16:24:00,70.9,39.6,30.05,South,182,7.2,13.7,32,0.00,,SKC,0.00,VWS V14.01,2013-04-27 21:24:00,
2013-04-27 16:29:00,71.6,40.2,30.05,SSE,159,10.5,10.5,32,0.00,,SKC,0.00,VWS V14.01,2013-04-27 21:29:00,
2013-04-27 16:35:00,69.8,38.6,30.02,ESE,108,8.9,9.7,32,0.00,,SKC,0.00,VWS V14.01,2013-04-27 21:35:00,
2013-04-27 16:41:00,69.8,38.6,30.02,SSE,155,8.9,8.9,32,0.00,,SKC,0.00,VWS V14.01,2013-04-27 21:41:00,
2013-04-27 16:48:00,71.6,39.4,30.02,South,171,4.0,4.0,31,0.00,,SKC,0.00,VWS V14.01,2013-04-27 21:48:00,
2013-04-27 16:53:00,71.4,40.0,30.02,SSE,151,6.4,6.4,32,0.00,,SKC,0.00,VWS V14.01,2013-04-27 21:53:00,
2013-04-27 16:58:00,71.8,39.5,30.02,SE,133,11.3,11.3,31,0.00,,SKC,0.00,VWS V14.01,2013-04-27 21:58:00,
2013-04-27 17:03:00,71.2,39.9,30.02,SSE,160,14.9,14.9,32,0.00,,SKC,0.00,VWS V14.01,2013-04-27 22:03:00,
2013-04-27 17:08:00,71.2,39.9,30.02,SSE,165,10.5,10.5,32,0.00,,SKC,0.00,VWS V14.01,2013-04-27 22:08:00,
2013-04-27 17:13:00,72.0,39.7,30.02,SSW,192,8.9,11.3,31,0.00,,SKC,0.00,VWS V14.01,2013-04-27 22:13:00,
2013-04-27 17:18:00,72.1,39.9,30.02,ESE,115,5.6,8.9,31,0.00,,SKC,0.00,VWS V14.01,2013-04-27 22:18:00,
2013-04-27 17:23:00,72.0,39.7,30.02,SSE,156,0.0,10.5,31,0.00,,SKC,0.00,VWS V14.01,2013-04-27 22:23:00,
2013-04-27 17:28:00,71.6,39.4,30.02,South,174,8.9,8.9,31,0.00,,SKC,0.00,VWS V14.01,2013-04-27 22:28:00,
2013-04-27 17:33:00,71.6,39.4,30.02,SSW,211,0.0,5.6,31,0.00,,SKC,0.00,VWS V14.01,2013-04-27 22:33:00,
2013-04-27 17:38:00,72.0,38.9,30.02,South,191,9.7,9.7,30,0.00,,SKC,0.00,VWS V14.01,2013-04-27 22:38:00,
2013-04-27 17:43:00,71.6,38.6,30.02,SSE,159,6.4,7.2,30,0.00,,SKC,0.00,VWS V14.01,2013-04-27 22:43:00,
2013-04-27 17:49:00,71.4,40.0,30.02,SSW,195,8.1,8.1,32,0.00,,SKC,0.00,VWS V14.01,2013-04-27 22:49:00,
2013-04-27 17:54:00,71.2,39.1,29.99,SE,133,6.4,11.3,31,0.00,,SKC,0.00,VWS V14.01,2013-04-27 22:54:00,
2013-04-27 17:59:00,70.7,39.4,29.99,SE,138,10.5,10.5,32,0.00,,SKC,0.00,VWS V14.01,2013-04-27 22:59:00,
2013-04-27 18:04:00,70.0,38.8,29.99,SE,126,0.0,9.7,32,0.00,,SKC,0.00,VWS V14.01,2013-04-27 23:04:00,
2013-04-27 18:09:00,70.9,38.8,29.99,SSE,150,8.9,8.9,31,0.00,,SKC,0.00,VWS V14.01,2013-04-27 23:09:00,
2013-04-27 18:14:00,71.1,38.9,29.99,SSE,156,7.2,11.3,31,0.00,,SKC,0.00,VWS V14.01,2013-04-27 23:14:00,
2013-04-27 18:19:00,70.5,37.6,29.99,SE,140,9.7,9.7,30,0.00,,SKC,0.00,VWS V14.01,2013-04-27 23:19:00,
2013-04-27 18:24:00,72.0,38.0,29.99,SE,137,11.3,14.5,29,0.00,,SKC,0.00,VWS V14.01,2013-04-27 23:24:00,
2013-04-27 18:29:00,72.5,38.5,29.99,SE,137,11.3,12.9,29,0.00,,SKC,0.00,VWS V14.01,2013-04-27 23:29:00,
2013-04-27 18:34:00,72.5,38.5,29.99,South,184,7.2,7.2,29,0.00,,SKC,0.00,VWS V14.01,2013-04-27 23:34:00,
2013-04-27 18:40:00,73.0,38.9,29.99,SSE,158,8.9,8.9,29,0.00,,SKC,0.00,VWS V14.01,2013-04-27 23:40:00,
2013-04-27 18:45:00,71.8,37.0,29.99,SE,144,11.3,11.3,28,0.00,,SKC,0.00,VWS V14.01,2013-04-27 23:45:00,
2013-04-27 18:51:00,71.1,37.2,29.99,SE,142,0.0,10.5,29,0.00,,SKC,0.00,VWS V14.01,2013-04-27 23:51:00,
2013-04-27 18:56:00,71.6,37.7,29.99,SSE,164,0.0,14.9,29,0.00,,SKC,0.00,VWS V14.01,2013-04-27 23:56:00,
2013-04-27 19:01:00,71.1,37.2,29.99,SSE,150,13.7,13.7,29,0.00,,SKC,0.00,VWS V14.01,2013-04-28 00:01:00,
2013-04-27 19:06:00,68.9,36.2,29.99,SSE,167,0.0,9.7,30,0.00,,SKC,0.00,VWS V14.01,2013-04-28 00:06:00,
2013-04-27 19:12:00,67.6,36.8,29.99,SSE,163,9.7,12.1,32,0.00,,SKC,0.00,VWS V14.01,2013-04-28 00:12:00,
2013-04-27 19:17:00,66.6,36.6,29.99,SSE,154,6.4,11.3,33,0.00,,SKC,0.00,VWS V14.01,2013-04-28 00:17:00,
2013-04-27 19:22:00,66.0,36.1,29.99,SE,145,5.6,8.9,33,0.00,,SKC,0.00,VWS V14.01,2013-04-28 00:22:00,
2013-04-27 19:27:00,65.1,36.1,29.99,SSE,151,8.1,9.7,34,0.00,,SKC,0.00,VWS V14.01,2013-04-28 00:27:00,
2013-04-27 19:32:00,64.4,36.2,29.99,SSW,194,11.3,13.7,35,0.00,,SKC,0.00,VWS V14.01,2013-04-28 00:32:00,
2013-04-27 19:38:00,63.7,36.2,29.99,SE,126,8.9,10.5,36,0.00,,SKC,0.00,VWS V14.01,2013-04-28 00:38:00,
2013-04-27 19:43:00,63.1,35.8,29.99,SSE,154,9.7,9.7,36,0.00,,SKC,0.00,VWS V14.01,2013-04-28 00:43:00,
2013-04-27 19:48:00,62.8,36.2,29.99,ESE,119,4.8,5.6,37,0.00,,SKC,0.00,VWS V14.01,2013-04-28 00:48:00,
2013-04-27 19:53:00,62.2,35.7,29.99,SSE,151,7.2,7.2,37,0.00,,SKC,0.00,VWS V14.01,2013-04-28 00:53:00,
2013-04-27 19:58:00,61.9,36.0,29.99,SSE,154,10.5,14.5,38,0.00,,SKC,0.00,VWS V14.01,2013-04-28 00:58:00,
2013-04-27 20:03:00,61.3,36.2,29.99,ESE,117,9.7,13.7,39,0.00,,SKC,0.00,VWS V14.01,2013-04-28 01:03:00,
2013-04-27 20:08:00,61.0,35.9,29.99,SE,141,9.7,14.5,39,0.00,,SKC,0.00,VWS V14.01,2013-04-28 01:08:00,
2013-04-27 20:13:00,60.6,36.2,29.99,SSE,164,7.2,7.2,40,0.00,,SKC,0.00,VWS V14.01,2013-04-28 01:13:00,
2013-04-27 20:18:00,60.3,36.5,29.99,SSE,157,8.1,8.1,41,0.00,,SKC,0.00,VWS V14.01,2013-04-28 01:18:00,
2013-04-27 20:23:00,59.9,36.8,29.99,SE,140,6.4,8.9,42,0.00,,SKC,0.00,VWS V14.01,2013-04-28 01:23:00,
2013-04-27 20:28:00,59.5,36.5,29.99,SSE,164,5.6,8.9,42,0.00,,SKC,0.00,VWS V14.01,2013-04-28 01:28:00,
2013-04-27 20:33:00,59.4,36.9,29.99,ESE,110,0.0,0.0,43,0.00,,SKC,0.00,VWS V14.01,2013-04-28 01:33:00,
2013-04-27 20:38:00,59.0,36.6,29.99,SSE,168,0.0,0.0,43,0.00,,SKC,0.00,VWS V14.01,2013-04-28 01:38:00,
2013-04-27 20:43:00,58.8,37.0,29.99,SSE,154,4.0,5.6,44,0.00,,SKC,0.00,VWS V14.01,2013-04-28 01:43:00,
2013-04-27 20:48:00,58.5,36.7,29.99,SSW,210,0.0,0.0,44,0.00,,SKC,0.00,VWS V14.01,2013-04-28 01:48:00,
2013-04-27 20:53:00,58.5,37.2,29.99,SE,143,0.0,0.0,45,0.00,,SKC,0.00,VWS V14.01,2013-04-28 01:53:00,
2013-04-27 20:58:00,58.1,36.9,29.99,SSE,160,6.4,6.4,45,0.00,,SKC,0.00,VWS V14.01,2013-04-28 01:58:00,
2013-04-27 21:03:00,57.7,36.6,29.99,East,88,0.0,0.0,45,0.00,,SKC,0.00,VWS V14.01,2013-04-28 02:03:00,
2013-04-27 21:08:00,57.4,36.8,29.99,SSE,159,0.0,0.0,46,0.00,,SKC,0.00,VWS V14.01,2013-04-28 02:08:00,
2013-04-27 21:13:00,57.0,36.5,29.99,SE,146,0.0,0.0,46,0.00,,SKC,0.00,VWS V14.01,2013-04-28 02:13:00,
2013-04-27 21:18:00,56.8,36.8,29.99,ESE,114,0.0,0.0,47,0.00,,SKC,0.00,VWS V14.01,2013-04-28 02:18:00,
2013-04-27 21:23:00,56.5,36.5,29.99,South,176,0.0,0.0,47,0.00,,SKC,0.00,VWS V14.01,2013-04-28 02:23:00,
2013-04-27 21:28:00,56.3,36.9,29.99,SSE,147,0.0,0.0,48,0.00,,SKC,0.00,VWS V14.01,2013-04-28 02:28:00,
2013-04-27 21:33:00,55.9,36.5,29.99,SSE,155,0.0,0.0,48,0.00,,SKC,0.00,VWS V14.01,2013-04-28 02:33:00,
2013-04-27 21:38:00,55.9,36.5,29.99,SSE,148,0.0,0.0,48,0.00,,SKC,0.00,VWS V14.01,2013-04-28 02:38:00,
2013-04-27 21:43:00,55.9,36.5,29.99,ESE,119,0.0,0.0,48,0.00,,SKC,0.00,VWS V14.01,2013-04-28 02:43:00,
2013-04-27 21:48:00,55.8,36.4,29.99,SE,138,0.0,0.0,48,0.00,,SKC,0.00,VWS V14.01,2013-04-28 02:48:00,
2013-04-27 21:53:00,55.2,36.4,29.99,SSE,157,0.0,0.0,49,0.00,,SKC,0.00,VWS V14.01,2013-04-28 02:53:00,
2013-04-27 21:58:00,54.9,36.1,29.99,SSE,157,0.0,0.0,49,0.00,,SKC,0.00,VWS V14.01,2013-04-28 02:58:00,
2013-04-27 22:03:00,54.5,36.3,29.99,SSE,147,0.0,0.0,50,0.00,,SKC,0.00,VWS V14.01,2013-04-28 03:03:00,
2013-04-27 22:08:00,54.5,36.8,29.99,SSE,151,0.0,0.0,51,0.00,,SKC,0.00,VWS V14.01,2013-04-28 03:08:00,
2013-04-27 22:13:00,54.1,36.4,29.99,South,171,0.0,0.0,51,0.00,,SKC,0.00,VWS V14.01,2013-04-28 03:13:00,
2013-04-27 22:18:00,53.8,36.6,29.99,South,170,0.0,0.0,52,0.00,,SKC,0.00,VWS V14.01,2013-04-28 03:18:00,
2013-04-27 22:23:00,53.6,36.4,29.99,SE,142,0.0,0.0,52,0.00,,SKC,0.00,VWS V14.01,2013-04-28 03:23:00,
2013-04-27 22:28:00,53.4,36.7,29.99,SSE,156,0.0,0.0,53,0.00,,SKC,0.00,VWS V14.01,2013-04-28 03:28:00,
2013-04-27 22:33:00,53.2,36.6,29.99,SSE,149,0.0,0.0,53,0.00,,SKC,0.00,VWS V14.01,2013-04-28 03:33:00,
2013-04-27 22:38:00,53.2,37.0,29.99,SE,141,0.0,0.0,54,0.00,,SKC,0.00,VWS V14.01,2013-04-28 03:38:00,
2013-04-27 22:43:00,53.2,37.0,29.99,South,171,0.0,0.0,54,0.00,,SKC,0.00,VWS V14.01,2013-04-28 03:43:00,
2013-04-27 22:48:00,53.1,36.9,29.99,South,173,0.0,0.0,54,0.00,,SKC,0.00,VWS V14.01,2013-04-28 03:48:00,
2013-04-27 22:53:00,52.9,37.2,29.99,SE,142,0.0,0.0,55,0.00,,SKC,0.00,VWS V14.01,2013-04-28 03:53:00,
2013-04-27 22:58:00,52.7,37.0,29.99,SSE,149,0.0,0.0,55,0.00,,SKC,0.00,VWS V14.01,2013-04-28 03:58:00,
2013-04-27 23:01:00,52.5,36.8,29.99,South,170,0.0,0.0,55,0.00,,SKC,0.00,VWS V14.01,2013-04-28 04:01:00,
2013-04-27 23:02:00,52.5,36.4,29.99,South,169,0.0,0.0,54,0.00,,SKC,0.00,VWS V14.01,2013-04-28 04:02:00,
2013-04-27 23:04:00,52.3,36.7,29.99,South,169,0.0,0.0,55,0.00,,SKC,0.00,VWS V14.01,2013-04-28 04:04:00,
2013-04-27 23:08:00,52.2,37.0,29.99,South,176,5.6,5.6,56,0.00,,SKC,0.00,VWS V14.01,2013-04-28 04:08:00,
2013-04-27 23:13:00,51.8,36.6,29.99,South,170,0.0,0.0,56,0.00,,SKC,0.00,VWS V14.01,2013-04-28 04:13:00,
2013-04-27 23:17:00,51.8,37.1,29.99,South,175,0.0,0.0,57,0.00,,SKC,0.00,VWS V14.01,2013-04-28 04:17:00,
2013-04-27 23:22:00,51.4,36.7,29.99,SSE,167,0.0,0.0,57,0.00,,SKC,0.00,VWS V14.01,2013-04-28 04:22:00,
2013-04-27 23:27:00,51.1,36.8,29.99,SSE,168,0.0,0.0,58,0.00,,SKC,0.00,VWS V14.01,2013-04-28 04:27:00,
2013-04-27 23:32:00,50.7,36.5,29.99,South,180,0.0,0.0,58,0.00,,SKC,0.00,VWS V14.01,2013-04-28 04:32:00,
2013-04-27 23:37:00,50.7,37.4,29.99,South,183,0.0,0.0,60,0.00,,SKC,0.00,VWS V14.01,2013-04-28 04:37:00,
2013-04-27 23:42:00,50.5,37.2,29.99,South,178,0.0,0.0,60,0.00,,SKC,0.00,VWS V14.01,2013-04-28 04:42:00,
2013-04-27 23:47:00,50.4,37.4,29.99,SSE,163,0.0,0.0,61,0.00,,SKC,0.00,VWS V14.01,2013-04-28 04:47:00,
2013-04-27 23:52:00,50.2,36.8,29.99,SSE,162,0.0,0.0,60,0.00,,SKC,0.00,VWS V14.01,2013-04-28 04:52:00,
2013-04-27 23:58:00,50.2,37.3,29.99,SSE,162,0.0,0.0,61,0.00,,SKC,0.00,VWS V14.01,2013-04-28 04:58:00,